CW3007 Weather Reports


Display with metric or nautical units.
time (UTC)temp
F
wind
direction
speed
MPH
gust
MPH
rain 1hr
in
rain 24hr
in
rain mn
in
humidity
%
barometer
mb
20260508184630 75 94 7.0 7.0 0.00 0.00 0.00 74 1010.6
20260508183629 76 324 1.0 6.0 0.00 0.00 0.00 73 1010.8
20260508181630 75 44 2.0 7.0 0.00 0.00 0.00 75 1010.9
20260508180630 74 118 4.0 9.0 0.00 0.00 0.00 75 1011.0
20260508175630 73 17 3.0 9.0 0.00 0.00 0.00 75 1011.1
20260508174630 73 16 3.0 8.0 0.00 0.00 0.00 75 1011.2
20260508173630 72 59 3.0 6.0 0.00 0.00 0.00 76 1011.3
20260508172630 71 43 3.0 6.0 0.00 0.00 0.00 76 1011.4
20260508171631 70 20 1.0 8.0 0.00 0.00 0.00 76 1011.6
20260508170630 70 9 7.0 7.0 0.00 0.00 0.00 76 1011.7
20260508164629 70 82 0.0 4.0 0.00 0.00 0.00 76 1012.0
20260508163629 70 48 3.0 5.0 0.00 0.00 0.00 76 1012.2
20260508162630 69 27 0.0 4.0 0.00 0.00 0.00 76 1012.3
20260508161630 69 279 0.0 3.0 0.00 0.00 0.00 77 1012.4
20260508160629 68 308 1.0 3.0 0.00 0.00 0.00 78 1012.5
20260508155629 68 344 0.0 3.0 0.00 0.00 0.00 78 1012.6
20260508153629 67 96 2.0 3.0 0.00 0.00 0.00 78 1012.5
20260508150629 66 106 0.0 4.0 0.00 0.00 0.00 79 1012.8
20260508145629 66 96 2.0 4.0 0.00 0.00 0.00 79 1012.6
20260508144630 66 76 1.0 6.0 0.00 0.00 0.00 79 1012.7
20260508143629 65 59 4.0 7.0 0.00 0.00 0.00 80 1012.7
20260508142629 65 113 6.0 7.0 0.00 0.00 0.00 79 1012.8
20260508141629 65 125 5.0 7.0 0.00 0.00 0.00 80 1012.9
20260508140629 64 80 3.0 6.0 0.00 0.00 0.00 80 1012.8
20260508135629 64 53 2.0 3.0 0.00 0.00 0.00 80 1013.0
20260508134629 64 94 1.0 3.0 0.00 0.00 0.00 80 1012.9
20260508133629 63 30 2.0 2.0 0.00 0.00 0.00 80 1013.0
20260508132629 63 63 0.0 2.0 0.00 0.00 0.00 80 1013.1
20260508131629 63 24 2.0 3.0 0.00 0.00 0.00 80 1013.0
20260508130629 63 78 0.0 3.0 0.00 0.00 0.00 80 1013.1
20260508125629 62 67 4.0 5.0 0.00 0.00 0.00 80 1012.9
20260508124629 62 67 2.0 3.0 0.00 0.00 0.00 80 1013.1
20260508123629 62 55 0.0 3.0 0.00 0.00 0.00 80 1013.3
20260508122629 62 34 0.0 3.0 0.00 0.00 0.00 80 1013.3
20260508120629 62 61 0.0 0.0 0.00 0.00 0.00 80 1013.4
20260508115629 62 22 0.0 0.0 0.00 0.00 0.00 80 1013.4
20260508114629 62 28 0.0 3.0 0.00 0.00 0.00 80 1013.8
20260508113629 62 351 2.0 3.0 0.00 0.00 0.00 80 1014.0
20260508111630 62 9 1.0 4.0 0.00 0.00 0.00 80 1013.6
20260508110630 62 12 0.0 4.0 0.00 0.00 0.00 80 1013.5
20260508105629 62 32 4.0 4.0 0.00 0.00 0.00 80 1013.5
20260508104629 62 24 2.0 5.0 0.00 0.00 0.00 80 1013.3
20260508103630 62 38 3.0 4.0 0.00 0.00 0.00 80 1013.3
20260508102630 62 9 2.0 4.0 0.00 0.00 0.00 80 1013.8
20260508101630 62 348 0.0 4.0 0.00 0.00 0.00 80 1013.9
20260508100630 62 346 0.0 4.0 0.00 0.00 0.00 80 1014.0
20260508094630 62 338 1.0 4.0 0.00 0.00 0.00 80 1014.1
20260508093630 62 340 2.0 4.0 0.00 0.00 0.00 81 1014.0
20260508092630 62 321 2.0 3.0 0.00 0.00 0.00 81 1013.9
20260508091629 62 355 1.0 2.0 0.00 0.00 0.00 81 1013.7
20260508085630 62 41 1.0 3.0 0.00 0.00 0.00 81 1013.3
20260508083629 62 360 0.0 0.0 0.00 0.00 0.00 82 1013.6
20260508082630 61 360 0.0 2.0 0.00 0.00 0.00 82 1013.6
20260508081630 61 42 1.0 3.0 0.00 0.00 0.00 83 1013.3
20260508080629 61 20 0.0 1.0 0.00 0.00 0.00 84 1013.4
20260508075629 61 20 1.0 3.0 0.00 0.00 0.00 84 1013.2
20260508074629 60 330 2.0 2.0 0.00 0.00 0.00 85 1013.1
20260508073630 60 330 0.0 2.0 0.00 0.00 0.00 85 1013.5
20260508070629 60 330 0.0 0.0 0.00 0.00 0.00 85 1014.0
20260508065629 60 330 0.0 0.0 0.00 0.00 0.00 85 1013.9
20260508064629 60 330 0.0 0.0 0.00 0.00 0.00 85 1014.1
20260508063629 60 330 0.0 0.0 0.00 0.00 0.00 85 1014.3
20260508062629 60 330 0.0 0.0 0.00 0.00 0.00 85 1014.8
20260508061629 60 330 0.0 0.0 0.00 0.00 0.00 84 1014.6
20260508060630 60 330 0.0 0.0 0.00 0.00 0.00 84 1014.2
20260508055630 60 330 0.0 0.0 0.00 0.00 0.00 84 1014.2
20260508053630 60 330 0.0 0.0 0.00 0.00 0.00 84 1014.4
20260508052630 60 330 0.0 4.0 0.00 0.00 0.00 84 1014.1
20260508051629 60 94 0.0 1.0 0.00 0.00 0.00 83 1014.2
20260508050629 60 94 1.0 3.0 0.00 0.00 0.00 83 1014.3
20260508045630 60 94 0.0 0.0 0.00 0.00 0.00 83 1015.0
20260508044629 60 94 0.0 0.0 0.00 0.00 0.00 83 1014.8
20260508043630 60 94 0.0 2.0 0.00 0.00 0.00 83 1014.2
20260508042629 60 94 1.0 3.0 0.00 0.00 0.00 82 1013.9
20260508041629 60 171 0.0 0.0 0.00 0.00 0.00 81 1015.1
20260508040629 61 171 0.0 0.0 0.00 0.00 0.00 81 1014.7
20260508035629 61 171 0.0 0.0 0.00 0.00 0.00 81 1015.0
20260508034630 61 171 0.0 0.0 0.00 0.00 0.00 81 1015.2
20260508033629 61 171 0.0 0.0 0.00 0.00 0.00 80 1015.0
20260508032629 61 171 0.0 0.0 0.00 0.00 0.00 80 1015.7
20260508031629 61 171 0.0 1.0 0.00 0.00 0.00 79 1015.1
20260508024629 62 320 0.0 3.0 0.00 0.00 0.00 78 1014.0
20260508023629 62 323 2.0 4.0 0.00 0.00 0.00 77 1013.8
20260508022629 62 37 1.0 5.0 0.00 0.00 0.00 77 1013.1
20260508021629 62 53 4.0 5.0 0.00 0.00 0.00 77 1013.1
20260508020629 62 47 0.0 1.0 0.00 0.00 0.00 77 1013.3
20260508015629 62 32 1.0 3.0 0.00 0.00 0.00 76 1013.4
20260508013629 63 70 1.0 3.0 0.00 0.00 0.00 75 1013.5
20260508012629 63 82 0.0 4.0 0.00 0.00 0.00 74 1013.3
20260508011628 63 49 2.0 3.0 0.00 0.00 0.00 73 1013.4
20260508005629 64 355 2.0 4.0 0.00 0.00 0.00 71 1014.1
20260508004628 64 74 4.0 7.0 0.00 0.00 0.00 71 1013.6
20260508002629 65 48 4.0 6.0 0.00 0.00 0.00 69 1014.0
20260508001629 65 5 2.0 4.0 0.00 0.00 0.00 69 1014.7
20260508000628 66 22 2.0 4.0 0.00 0.00 0.00 68 1014.8
20260507232629 66 25 3.0 7.0 0.00 0.00 0.00 66 1014.4
20260507231628 66 15 4.0 8.0 0.00 0.00 0.00 65 1014.5
20260507230629 66 10 5.0 9.0 0.00 0.00 0.00 66 1014.9
20260507225628 67 349 3.0 9.0 0.00 0.00 0.00 66 1014.7
20260507224628 67 23 3.0 6.0 0.00 0.00 0.00 66 1014.5
20260507222629 67 350 4.0 10.0 0.00 0.00 0.00 65 1015.0
20260507221629 67 348 4.0 10.0 0.00 0.00 0.00 65 1015.4
20260507215628 67 36 4.0 10.0 0.00 0.00 0.00 64 1015.5
20260507214628 67 331 9.0 9.0 0.00 0.00 0.00 65 1015.8
20260507213628 66 34 8.0 11.0 0.00 0.00 0.00 64 1015.7
20260507212628 66 26 6.0 9.0 0.00 0.00 0.00 67 1015.5
20260507211628 66 20 5.0 9.0 0.00 0.00 0.00 67 1014.8
20260507210628 66 28 6.0 10.0 0.00 0.00 0.00 67 1015.4
20260507205628 66 33 4.0 11.0 0.00 0.00 0.00 67 1015.8
20260507204628 66 34 4.0 10.0 0.00 0.00 0.00 67 1016.1
20260507201628 65 61 2.0 11.0 0.00 0.00 0.00 68 1016.0
20260507200629 65 27 8.0 10.0 0.00 0.00 0.00 68 1015.9
20260507195628 64 349 4.0 10.0 0.00 0.00 0.00 69 1016.4
20260507194628 64 13 3.0 8.0 0.00 0.00 0.00 69 1016.7
20260507193628 64 24 6.0 8.0 0.00 0.00 0.00 70 1016.5
20260507191628 64 19 7.0 10.0 0.00 0.00 0.00 70 1016.9
20260507190628 63 58 4.0 14.0 0.00 0.00 0.00 70 1016.7
20260507185628 64 77 2.0 11.0 0.00 0.00 0.00 70 1016.6